Location: Unspecified
(10.5000°N, 0.0000°E)
Time: 15:52:08
(UTC+00:00)

ISS - Visible Passes

Search period start: 23 April 2019 00:00
Search period end: 03 May 2019 00:00
Orbit: 408 x 410 km, 51.6° (Epoch: 24 April)

Date Brightness Start Highest point End Pass type
(mag) Time Alt. Az. Time Alt. Az. Time Alt. Az.
23 Apr -2.3 04:19:50 28° SSE 04:20:33 31° SE 04:23:31 10° ENE visible
24 Apr -2.2 05:04:36 15° W 05:06:12 20° NW 05:08:42 10° N visible
25 Apr -2.6 04:16:26 34° N 04:16:26 34° N 04:18:36 10° NNE visible
